Tracking 30995 objects as of 5-Jul-2025
HD Live streaming from Space Station
objects crossing your sky now

STARLINK-11443

Track STARLINK-11443 now!
10-day predictions
STARLINK-11443 is classified as:


NORAD ID: 62512
Int'l Code: 2025-004B
Perigee: 362.8 km
Apogee: 364.5 km
Inclination: 43.0 °
Period: 91.7 minutes
Semi major axis: 6734 km
RCS: Unknown
Launch date: January 8, 2025
Source: United States (US)
Launch site: AIR FORCE EASTERN TEST RANGE (AFETR)
Your satellite tracking list
STARLINK-2124
Track 1 satellite(s)




NASA's NSSDC Master Catalog

Two Line Element Set (TLE):
1 62512U 25004B   25186.79513479  .00179515  00000-0  13722-2 0  9999
2 62512  42.9996 119.3586 0001266 250.8416 109.2314 15.70845129 29284
Source of the keplerian elements: AFSPC